Port Isabel, TX

12:33 AM CST on January 23, 2018 (GMT -0600)
Port Isabel-Cameron County

Weather History for KPIL - September, 2013

Change the Weather History Date:

Saturday, September 7, 2013

  Actual Average (KBRO) Record (KBRO)
Temperature  
Mean Temperature 81 °F -  
Max Temperature 88 °F 90 °F 99 °F (2002)
Min Temperature 75 °F 73 °F 61 °F (1974)
Cooling Degree Days 16    
Growing Degree Days 31 (Base 50)    
Moisture  
Dew Point 75 °F    
Average Humidity 86    
Maximum Humidity 100    
Minimum Humidity 66    
Precipitation  
Precipitation 0.15 in - - ()
Sea Level Pressure  
Sea Level Pressure 29.94 in    
Wind  
Wind Speed 5 mph (NE)    
Max Wind Speed 14 mph    
Max Gust Speed 20 mph    
Visibility 8 miles    
Events Rain , Thunderstorm    
Averages and records for this station are not official NWS values.
T = Trace of Precipitation, MM = Missing Value Source: NWS Daily Summary

Daily Weather History Graph

Daily Weather History Graph

Search for Another Location

Airport or City:

Trip Planner

Search our weather history database for the weather conditions in past years. The results will help you decide how hot, cold, wet, or windy it might be!

Date:

Astronomy

Sep. 07, 2013 Rise Set
Actual Time 7:11 AM CDT 7:42 PM CDT
Civil Twilight 6:48 AM CDT 8:05 PM CDT
Nautical Twilight 6:21 AM CDT 8:32 PM CDT
Astronomical Twilight 5:53 AM CDT 9:00 PM CDT
Moon 9:09 AM CDT (9/7) 9:02 PM CDT (9/7)
Length of Visible Light 13h 16m
Length of Day
12h 30m
Waxing Crescent, 5% of the Moon is Illuminated
Sep 7
Waxing Crescent
Sep 12
First Quarter
Sep 19
Full
Sep 26
Last Quarter
Oct 4
New

Hourly Weather History & Observations

Time (CDT) Temp. Heat Index Dew Point Humidity Pressure Visibility Wind Dir Wind Speed Gust Speed Precip Events Conditions
12:53 AM 77.0 °F - 75.0 °F 94% 29.95 in 10.0 mi Calm Calm - N/A   Clear
1:53 AM 77.0 °F - 75.0 °F 94% 29.95 in 10.0 mi NW 4.6 mph - N/A   Clear
2:53 AM 75.9 °F - 75.9 °F 100% 29.94 in 9.0 mi West 5.8 mph - N/A   Mostly Cloudy
3:06 AM 75.2 °F - 75.2 °F 100% 29.94 in 5.0 mi Variable 6.9 mph - 0.03 in Rain Light Rain
3:13 AM 75.2 °F - 75.2 °F 100% 29.93 in 1.8 mi Calm Calm - 0.14 in Rain Heavy Rain
3:19 AM 75.2 °F - 75.2 °F 100% 29.93 in 3.0 mi NW 6.9 mph - 0.15 in Rain Light Rain
3:29 AM 77.0 °F - 75.2 °F 94% 29.93 in 9.0 mi NW 4.6 mph - 0.15 in   Mostly Cloudy
3:53 AM 75.9 °F - 75.9 °F 100% 29.93 in 9.0 mi Calm Calm - 0.15 in   Mostly Cloudy
4:53 AM 75.0 °F - 75.0 °F 100% 29.93 in 7.0 mi West 3.5 mph - 0.00 in   Scattered Clouds
5:53 AM 75.0 °F - 75.0 °F 100% 29.94 in 8.0 mi West 4.6 mph - N/A   Mostly Cloudy
6:53 AM 75.0 °F - 75.0 °F 100% 29.94 in 9.0 mi WNW 4.6 mph - N/A   Clear
7:53 AM 75.0 °F - 75.0 °F 100% 29.96 in 6.0 mi NNW 5.8 mph - N/A   Clear
8:53 AM 78.1 °F - 77.0 °F 96% 29.96 in 8.0 mi NNW 6.9 mph - N/A   Clear
9:53 AM 80.1 °F 85.4 °F 75.9 °F 87% 29.98 in 9.0 mi North 8.1 mph - N/A   Partly Cloudy
10:53 AM 82.9 °F 90.8 °F 75.9 °F 79% 29.99 in 9.0 mi NNE 9.2 mph - N/A   Mostly Cloudy
11:17 AM 86.0 °F 95.1 °F 75.2 °F 70% 29.99 in 9.0 mi NNE 13.8 mph 19.6 mph N/A   Scattered Clouds
11:38 AM 87.8 °F 97.6 °F 75.2 °F 66% 29.99 in 9.0 mi NNE 9.2 mph - N/A Thunderstorm Scattered Clouds
11:53 AM 86.0 °F 96.0 °F 75.9 °F 72% 29.99 in 9.0 mi ENE 10.4 mph - N/A Thunderstorm Scattered Clouds
12:06 PM 82.4 °F 89.5 °F 75.2 °F 79% 29.99 in 9.0 mi ENE 10.4 mph - N/A   Mostly Cloudy
12:53 PM 82.9 °F 90.2 °F 75.0 °F 77% 29.97 in 9.0 mi East 5.8 mph - N/A   Partly Cloudy
1:53 PM 82.9 °F 90.2 °F 75.0 °F 77% 29.95 in 9.0 mi ENE 8.1 mph - N/A   Clear
2:53 PM 86.0 °F 95.1 °F 75.0 °F 70% 29.92 in 9.0 mi East 10.4 mph - N/A   Partly Cloudy
3:53 PM 84.0 °F 91.2 °F 73.9 °F 72% 29.92 in 9.0 mi ENE 10.4 mph - N/A   Clear
4:53 PM 82.9 °F 89.4 °F 73.9 °F 74% 29.91 in 9.0 mi East 10.4 mph - N/A   Clear
5:53 PM 82.9 °F 90.2 °F 75.0 °F 77% 29.91 in 10.0 mi East 12.7 mph - N/A   Clear
6:53 PM 82.0 °F 88.6 °F 75.0 °F 79% 29.90 in 10.0 mi East 4.6 mph - N/A   Clear
7:53 PM 81.0 °F 86.7 °F 75.0 °F 82% 29.90 in 10.0 mi Calm Calm - N/A   Clear
8:53 PM 80.1 °F 85.1 °F 75.0 °F 85% 29.90 in 10.0 mi East 4.6 mph - N/A   Clear
9:53 PM 80.1 °F 85.4 °F 75.9 °F 87% 29.92 in 10.0 mi East 4.6 mph - N/A   Clear
10:53 PM 81.0 °F 86.7 °F 75.0 °F 82% 29.93 in 10.0 mi East 6.9 mph - N/A   Clear
11:53 PM 81.0 °F 86.7 °F 75.0 °F 82% 29.92 in 10.0 mi ESE 8.1 mph - N/A   Partly Cloudy